Home   Weather   Stanley   Past weeks

Flag for Falkland Islands Past Weather in Stanley, Falkland Islands — Yesterday and Last 2 Weeks

Now
37 °F

Passing clouds.


Feels Like: 27 °F
Forecast: 40 / 46 °F
Wind: 22 mph from Southwest

Location: Mount Pleasant Airport

Current Time: Dec 7, 2016 at 11:26:47 pm

Latest Report: Dec 7, 2016 at 10:50 pm


Visibility: N/A

Pressure: 29.59 "Hg

Humidity: 75%

Dew Point: 30 °F

Location of StanleyLocation

Past Weather in Stanley — Graph

°F

Stanley Temperature Yesterday

Maximum temperature yesterday: 59 °F (at 1:50 pm)
Minimum temperature yesterday: 37 °F (at 4:50 am)
Average temperature yesterday: 47 °F

High & Low Weather Summary for the Past Weeks

 TemperatureHumidityPressure
High72 °F (Nov 24, 12:50 pm)100% (Nov 25, 3:50 am)29.95 "Hg (Nov 25, 3:50 am)
Low36 °F (Dec 3, 2:50 am)30% (Dec 1, 4:50 pm)29.06 "Hg (Dec 1, 1:50 pm)
Average50 °F68%29.64 "Hg
* Reported Nov 22 9:50 pm — Dec 7 9:50 pm, Stanley, Weather by CustomWeather, © 2016

Note: Actual official high and low records may vary slightly from our data, if they occured in-between our weather recording intervals... More about our weather records

Advertising

Stanley Weather History for the Previous 24 Hours

Scroll right to see more
 ConditionsComfort  
Time TempWeatherWind HumidityBarometerVisibility
9:50 pm
Wed, Dec 7
36 °FScattered showers. Passing clouds.22 mph93%29.59 "HgN/A
8:50 pm39 °FScattered showers. Scattered clouds.21 mph75%29.59 "HgN/A
7:50 pm39 °FScattered showers. Scattered clouds.23 mph81%29.59 "HgN/A
6:50 pm41 °FScattered clouds.28 mph70%29.59 "HgN/A
5:50 pm45 °FScattered showers. Scattered clouds.31 mph46%29.59 "HgN/A
4:50 pm43 °FSprinkles. Scattered clouds.28 mph66%29.59 "HgN/A
3:50 pm45 °FPassing clouds.25 mph71%29.56 "HgN/A
2:50 pm46 °FScattered clouds.25 mph71%29.56 "HgN/A
1:50 pm50 °FScattered showers. Scattered clouds.26 mph47%29.56 "HgN/A
12:50 pm46 °FSprinkles. Scattered clouds.26 mph66%29.59 "HgN/A
11:50 am50 °FSprinkles. Passing clouds.24 mph54%29.59 "HgN/A
10:50 am48 °FScattered clouds.24 mph54%29.59 "HgN/A
9:50 am46 °FScattered showers. Broken clouds.21 mph57%29.62 "HgN/A
8:50 am46 °FScattered showers. Partly sunny.18 mph53%29.62 "HgN/A
7:50 am43 °FScattered showers. Scattered clouds.16 mph66%29.62 "HgN/A
6:50 am41 °FBroken clouds.17 mph66%29.62 "HgN/A
5:50 am39 °FSprinkles. Partly sunny.15 mph87%29.62 "HgN/A
4:50 am39 °FPartly cloudy.15 mph81%29.59 "HgN/A
3:50 am41 °FPassing clouds.15 mph81%29.59 "HgN/A
2:50 am41 °FPassing clouds.18 mph93%29.59 "HgN/A
1:50 am43 °FPassing clouds.20 mph100%29.59 "HgN/A
12:50 am45 °FPassing clouds.17 mph100%29.59 "Hg4 mi
11:50 pm
Tue, Dec 6
46 °FLight rain. Partly cloudy.7 mph87%29.59 "HgN/A
Weather by CustomWeather, © 2016

See weather overviewHow to use our weather pages